Regional Weather Roundup
Issued by NWS

Home | Current Version | Previous Version | Graphics & Text | Print | Product List | Glossary On
Versions: 1 2 3 4 5 6 7 8 9 10 11 12 13 14 15 16 17 18 19 20 21 22 23 24 25 26 27 28 29 30 31 32 33 34 35 36 37 38 39 40 41 42 43 44 45 46 47 48 49 50
000
ASUS43 KDMX 291607
RWRIA

WEATHER ROUNDUP FOR IOWA
NATIONAL WEATHER SERVICE DES MOINES IA
1100 AM CDT SUN MAR 29 2015

NOTE: "FAIR" INDICATES FEW OR NO CLOUDS BELOW 12,000 FEET WITH NO
SIGNIFICANT WEATHER AND/OR OBSTRUCTIONS TO VISIBILITY.

* - THESE STATIONS ARE NOT NWS STATIONS...THUS NOT UNDER NWS
QUALITY CONTROL.  THEY ALSO DO NOT REPORT WEATHER SUCH
AS PRECIPITATION OR FOG.

IAZ001>003-012>014-020>022-031>034-043>046-291700-
   NORTHWEST IOWA

CITY           SKY/WX    TMP DP  RH WIND       PRES   REMARKS
CARROLL *      PTSUNNY   55  37  50 W25G36    29.84R
CHEROKEE *     PTSUNNY   54  41  62 NW26G37   29.85R
DENISON *      CLOUDY    54  39  58 NW25G40   29.86R
LE MARS *      CLOUDY    48  39  71 NW26G39   29.91R
ORANGE CITY *  CLOUDY    50  41  71 NW31G40   29.86R
SHELDON *      CLOUDY    48  43  81 NW23G40   29.82R
SIOUX CITY     LGT RAIN  51  37  58 NW24G40   29.91R
SPENCER        PTSUNNY   53  39  59 NW26G38   29.79R
STORM LAKE *   CLOUDY    52  39  62 NW37G45   29.83R
$$

IAZ055>058-069>071-079>083-090>094-291700-
   SOUTHWEST IOWA

CITY           SKY/WX    TMP DP  RH WIND       PRES   REMARKS
ATLANTIC *     SUNNY     54  41  62 W18G25    29.90F
AUDUBON *      SUNNY     54  43  66 W14G20    29.88S
CLARINDA *     SUNNY     54  41  62 SW16      29.96R
COUNCIL BLFS * SUNNY     57  39  51 W16G25    29.93R
CRESTON *      SUNNY     48  45  87 SW17      29.91S
HARLAN  *      MOSUNNY   57  41  54 W26G32    29.92S
LAMONI         CLOUDY    49  40  71 SW16      29.92F
RED OAK *      SUNNY     54  39  58 W14G20    29.94R
SHENANDOAH *   SUNNY     57  41  54 W16G22    29.96R
$$

IAZ047>049-059>061-072>074-084-291700-
   CENTRAL IOWA

CITY           SKY/WX    TMP DP  RH WIND       PRES   REMARKS
AMES           PTSUNNY   52  40  63 SW25G31   29.83R
ANKENY *       SUNNY     52  41  66 SW17      29.85F
CHARITON *     SUNNY     46  39  76 SW20G26   29.89F
DES MOINES     CLOUDY    50  40  68 SW20      29.87S
GRINNELL*      CLOUDY    45  39  81 SW21      29.85S
KNOXVILLE *    CLOUDY    46  39  76 SW20G28   29.86F
MARSHALLTOWN   PTSUNNY   48  41  76 SW23G32   29.81S
PELLA *        CLOUDY    46  41  81 SW14G23   29.88F
PERRY *          N/A     54  41  62 W23G33    29.86R
$$

IAZ004>006-015-016-023>025-035-036-291700-
   NORTH CENTRAL IOWA

CITY           SKY/WX    TMP DP  RH WIND       PRES   REMARKS
ALGONA *       MOSUNNY   57  41  54 NW22G38   29.76R
CLARION *      SUNNY     55  45  67 W26       29.77R
ESTHERVILLE    PTSUNNY   51  39  63 NW32G46   29.75R
FORT DODGE *   SUNNY     55  39  54 W18G25    29.80S
MASON CITY     SUNNY     52  42  69 W18G29    29.73S
FOREST CITY *  SUNNY     52  41  66 W25G37    29.72R
IOWA FALLS *     N/A     50  41  71 W26       29.79S
$$

IAZ007>011-017>019-026>030-037>042-050>054-066-291700-
   NORTHEAST IOWA

CITY           SKY/WX    TMP DP  RH WIND       PRES   REMARKS
CEDAR RAPIDS   CLOUDY    39  36  89 S23G31    29.83F WCI  28
CHARLES CITY * PTSUNNY   46  45  93 SW20G28   29.74F
CLINTON *      PTSUNNY   34  28  80 SW20G25   29.94F WCI  22
DECORAH *      CLOUDY    36  34  93 S16G23    29.72F WCI  26
DUBUQUE        CLOUDY    33  29  85 S24       29.82F WCI  20
MONTICELLO *   CLOUDY    36  36 100 S15G25    29.85F WCI  26
OELWEIN *      CLOUDY    39  37  93 SW20      29.78F WCI  30
WATERLOO       PTSUNNY   45  40  82 SW25G36   29.78F
$$

IAZ064-065-067-068-078-291700-
   EAST CENTRAL IOWA

CITY           SKY/WX    TMP DP  RH WIND       PRES   REMARKS
DAVENPORT      CLOUDY    35  28  75 S23G36    29.92R WCI  23
IOWA CITY      CLOUDY    39  34  82 S16       29.90F WCI  30
MT. PLEASANT * CLOUDY    37  32  81 S17G24    29.93F WCI  28
MUSCATINE *    CLOUDY    37  32  81 S20G29    29.92F WCI  27
QUAD CITIES    CLOUDY    35  28  75 S21G30    29.91R WCI  24
$$

IAZ062-063-075>077-085>089-095>099-291700-
   SOUTHEAST IOWA

CITY           SKY/WX    TMP DP  RH WIND       PRES   REMARKS
BURLINGTON     CLOUDY    37  32  82 S16       29.95R WCI  28
FAIRFIELD *    MIX PCPN  43  36  75 SW21G31   29.91F
FORT MADISON * CLOUDY    37  34  87 S14G21    29.96S WCI  29
KEOKUK *       CLOUDY    39  32  75 SW16      29.96R WCI  30
OSKALOOSA *      N/A     45  39  81 SW23      29.88F
CENTERVILLE *  SUNNY     45  39  81 S21       29.93F
OTTUMWA        PTSUNNY   46  39  76 SW18G30   29.89F
WASHINGTON *   MOSUNNY   41  41 100 SW23G31   29.90F
$$

ABBREVIATIONS USED IN REMARKS
   TC - TEMPERATURES IN CELSIUS
  WCI - WIND CHILL INDEX
   HX - HEAT INDEX
  VSB - VISIBILITY
$$




USA.gov is the U.S. government's official web portal to all federal, state and local government web resources and services.